Year,Month,Day,Hour,Minute,Value (Times are PST for temperature in C)
2010,05,15,07,44,13.80
2010,05,15,07,45,13.80
2010,05,15,07,46,13.90
2010,05,15,07,47,13.90
2010,05,15,07,48,14.00
2010,05,15,07,49,14.10
2010,05,15,07,50,14.20
2010,05,15,07,51,14.30
2010,05,15,07,52,14.40
2010,05,15,07,53,14.50
2010,05,15,07,54,14.50
2010,05,15,07,55,14.60
2010,05,15,07,56,14.70
2010,05,15,07,57,14.70
2010,05,15,07,58,14.70
2010,05,15,07,59,14.70
2010,05,15,08,00,14.70
2010,05,15,08,01,14.70
2010,05,15,08,02,14.70
2010,05,15,08,03,14.70
2010,05,15,08,04,14.70
2010,05,15,08,05,14.70
2010,05,15,08,06,14.70
2010,05,15,08,07,14.70
2010,05,15,08,08,14.70
2010,05,15,08,09,14.80
2010,05,15,08,10,14.80
2010,05,15,08,11,14.80
2010,05,15,08,12,14.80
2010,05,15,08,13,14.80
2010,05,15,08,14,14.80
2010,05,15,08,15,14.80
2010,05,15,08,16,14.80
2010,05,15,08,17,14.80
2010,05,15,08,18,14.80
2010,05,15,08,19,14.80
2010,05,15,08,20,14.80
2010,05,15,08,21,14.70
2010,05,15,08,22,14.60
2010,05,15,08,23,14.60
2010,05,15,08,24,14.70
2010,05,15,08,25,14.70
2010,05,15,08,26,14.70
2010,05,15,08,27,14.70
2010,05,15,08,28,14.70
2010,05,15,08,29,14.70
2010,05,15,08,30,14.70
2010,05,15,08,31,14.60
2010,05,15,08,32,14.60
2010,05,15,08,33,14.60
2010,05,15,08,34,14.60
2010,05,15,08,35,14.70
2010,05,15,08,36,14.70
2010,05,15,08,37,14.80
2010,05,15,08,38,14.90
2010,05,15,08,39,14.90
2010,05,15,08,40,14.90
2010,05,15,08,41,14.90
2010,05,15,08,42,14.90
2010,05,15,08,43,14.90
2010,05,15,08,44,14.90
2010,05,15,08,45,14.80
2010,05,15,08,46,14.80
2010,05,15,08,47,14.80
2010,05,15,08,48,14.80
2010,05,15,08,49,14.80
2010,05,15,08,50,14.70
2010,05,15,08,51,14.70
2010,05,15,08,52,14.70
2010,05,15,08,53,14.60
2010,05,15,08,54,14.60
2010,05,15,08,55,14.60
2010,05,15,08,56,14.50
2010,05,15,08,57,14.60
2010,05,15,08,58,14.60
2010,05,15,08,59,14.60
2010,05,15,09,00,14.50
2010,05,15,09,01,14.50
2010,05,15,09,02,14.50
2010,05,15,09,03,14.50
2010,05,15,09,04,14.50
2010,05,15,09,05,14.40
2010,05,15,09,06,14.40
2010,05,15,09,07,14.40
2010,05,15,09,08,14.40
2010,05,15,09,09,14.40
2010,05,15,09,10,14.40
2010,05,15,09,11,14.40
2010,05,15,09,12,14.40
2010,05,15,09,13,14.40
2010,05,15,09,14,14.40
2010,05,15,09,15,14.40
2010,05,15,09,16,14.40
2010,05,15,09,17,14.40
2010,05,15,09,18,14.40
2010,05,15,09,19,14.50
2010,05,15,09,20,14.50
2010,05,15,09,21,14.50
2010,05,15,09,22,14.40
2010,05,15,09,23,14.40
2010,05,15,09,24,14.40
2010,05,15,09,25,14.30
2010,05,15,09,26,14.30
2010,05,15,09,27,14.30
2010,05,15,09,28,14.30
2010,05,15,09,29,14.30
2010,05,15,09,30,14.20
2010,05,15,09,31,14.20
2010,05,15,09,32,14.20
2010,05,15,09,33,14.10
2010,05,15,09,34,14.20
2010,05,15,09,35,14.20
2010,05,15,09,36,14.20
2010,05,15,09,37,14.30
2010,05,15,09,38,14.30
2010,05,15,09,39,14.40
2010,05,15,09,40,14.40
2010,05,15,09,41,14.40
2010,05,15,09,42,14.40
2010,05,15,09,43,14.50
2010,05,15,09,44,14.50
2010,05,15,09,45,14.60
2010,05,15,09,46,14.70
2010,05,15,09,47,14.70
2010,05,15,09,48,14.80
2010,05,15,09,49,14.90
2010,05,15,09,50,15.00
2010,05,15,09,51,15.00
2010,05,15,09,52,15.00
2010,05,15,09,53,15.00
2010,05,15,09,54,15.00
2010,05,15,09,55,15.00
2010,05,15,09,56,15.00
2010,05,15,09,57,14.80
2010,05,15,09,58,14.70
2010,05,15,09,59,14.70
2010,05,15,10,00,14.60
2010,05,15,10,01,14.60
2010,05,15,10,02,14.60
2010,05,15,10,03,14.60
2010,05,15,10,04,14.60
2010,05,15,10,05,14.60
2010,05,15,10,06,14.60
2010,05,15,10,07,14.60
2010,05,15,10,08,14.60
2010,05,15,10,09,14.60
2010,05,15,10,10,14.60
2010,05,15,10,11,14.60
2010,05,15,10,12,14.60
2010,05,15,10,13,14.60
2010,05,15,10,14,14.70
2010,05,15,10,15,14.80
2010,05,15,10,16,14.80
2010,05,15,10,17,15.00
2010,05,15,10,18,15.00
2010,05,15,10,19,15.00
2010,05,15,10,20,15.00
2010,05,15,10,21,15.00
2010,05,15,10,22,15.00
2010,05,15,10,23,15.00
2010,05,15,10,24,15.00
2010,05,15,10,25,15.00
2010,05,15,10,26,15.00
2010,05,15,10,27,15.00
2010,05,15,10,28,14.90
2010,05,15,10,29,14.90
2010,05,15,10,30,15.00
2010,05,15,10,31,15.00
2010,05,15,10,32,15.00
2010,05,15,10,33,15.00
2010,05,15,10,34,15.00
2010,05,15,10,35,15.00
2010,05,15,10,36,15.00
2010,05,15,10,37,15.00
2010,05,15,10,38,15.00
2010,05,15,10,39,15.00
2010,05,15,10,40,15.00
2010,05,15,10,41,15.00
2010,05,15,10,42,15.10
2010,05,15,10,43,15.20
2010,05,15,10,44,15.30
2010,05,15,10,45,15.30
2010,05,15,10,46,15.30
2010,05,15,10,47,15.30
2010,05,15,10,48,15.20
2010,05,15,10,49,15.20
2010,05,15,10,50,15.30
2010,05,15,10,51,15.30
2010,05,15,10,52,15.30
2010,05,15,10,53,15.30
2010,05,15,10,54,15.30
2010,05,15,10,55,15.30
2010,05,15,10,56,15.20
2010,05,15,10,57,15.20
2010,05,15,10,58,15.10
2010,05,15,10,59,15.20
2010,05,15,11,00,15.20
2010,05,15,11,01,15.20
2010,05,15,11,02,15.30
2010,05,15,11,03,15.30
2010,05,15,11,04,15.30
2010,05,15,11,05,15.30
2010,05,15,11,06,15.40
2010,05,15,11,07,15.40
2010,05,15,11,08,15.50
2010,05,15,11,09,15.50
2010,05,15,11,10,15.40
2010,05,15,11,11,15.40
2010,05,15,11,12,15.40
2010,05,15,11,13,15.40
2010,05,15,11,14,15.40
2010,05,15,11,15,15.40
2010,05,15,11,16,15.40
2010,05,15,11,17,15.40
2010,05,15,11,18,15.40
2010,05,15,11,19,15.40
2010,05,15,11,20,15.40
2010,05,15,11,21,15.50
2010,05,15,11,22,15.50
2010,05,15,11,23,15.60
2010,05,15,11,24,15.60
2010,05,15,11,25,15.60
2010,05,15,11,26,15.50
2010,05,15,11,27,15.50
2010,05,15,11,28,15.50
2010,05,15,11,29,15.60
2010,05,15,11,30,15.60
2010,05,15,11,31,15.70
2010,05,15,11,32,15.90
2010,05,15,11,33,16.00
2010,05,15,11,34,16.10
2010,05,15,11,35,16.20
2010,05,15,11,36,16.30
2010,05,15,11,37,16.40
2010,05,15,11,38,16.50
2010,05,15,11,39,16.60
2010,05,15,11,40,16.60
2010,05,15,11,41,16.80
2010,05,15,11,42,16.90
2010,05,15,11,43,17.10
2010,05,15,11,44,17.20
2010,05,15,11,45,17.30
2010,05,15,11,46,17.20
2010,05,15,11,47,17.20
2010,05,15,11,48,17.20
2010,05,15,11,49,17.20
2010,05,15,11,50,17.20
2010,05,15,11,51,17.30
2010,05,15,11,52,17.20
2010,05,15,11,53,17.10
2010,05,15,11,54,17.10
2010,05,15,11,55,17.00
2010,05,15,11,56,16.90
2010,05,15,11,57,16.90
2010,05,15,11,58,16.90
2010,05,15,11,59,16.90
2010,05,15,12,00,16.70
2010,05,15,12,01,16.70
2010,05,15,12,02,16.70
2010,05,15,12,03,16.70
2010,05,15,12,04,16.70
2010,05,15,12,05,16.80
2010,05,15,12,06,16.90
2010,05,15,12,07,17.00
2010,05,15,12,08,17.00
2010,05,15,12,09,17.00
2010,05,15,12,10,17.00
2010,05,15,12,11,17.10
2010,05,15,12,12,17.20
2010,05,15,12,13,17.10
2010,05,15,12,14,17.10
2010,05,15,12,15,17.10
2010,05,15,12,16,17.10
2010,05,15,12,17,17.00
2010,05,15,12,18,17.10
2010,05,15,12,19,17.00
2010,05,15,12,20,16.90
2010,05,15,12,21,16.80
2010,05,15,12,22,16.80
2010,05,15,12,23,16.80
2010,05,15,12,24,16.80
2010,05,15,12,25,16.80
2010,05,15,12,26,16.80
2010,05,15,12,27,16.70
2010,05,15,12,28,16.70
2010,05,15,12,29,16.80
2010,05,15,12,30,16.80
2010,05,15,12,31,16.80
2010,05,15,12,32,16.70
2010,05,15,12,33,16.70
2010,05,15,12,34,16.70
2010,05,15,12,35,16.70
2010,05,15,12,36,16.70
2010,05,15,12,37,16.60
2010,05,15,12,38,16.60
2010,05,15,12,39,16.60
2010,05,15,12,40,16.60
2010,05,15,12,41,16.60
2010,05,15,12,42,16.60
2010,05,15,12,43,16.60
2010,05,15,12,44,16.60
2010,05,15,12,45,16.60
2010,05,15,12,46,16.60
2010,05,15,12,47,16.70
2010,05,15,12,48,16.80
2010,05,15,12,49,16.80
2010,05,15,12,50,16.90
2010,05,15,12,51,17.10
2010,05,15,12,52,17.20
2010,05,15,12,53,17.30
2010,05,15,12,54,17.30
2010,05,15,12,55,17.40
2010,05,15,12,56,17.40
2010,05,15,12,57,17.30
2010,05,15,12,58,17.20
2010,05,15,12,59,17.10
2010,05,15,13,00,17.10
2010,05,15,13,01,17.00
2010,05,15,13,02,17.00
2010,05,15,13,03,17.10
2010,05,15,13,04,17.10
2010,05,15,13,05,17.10
2010,05,15,13,06,17.10
2010,05,15,13,07,17.10
2010,05,15,13,08,17.10
2010,05,15,13,09,17.00
2010,05,15,13,10,17.00
2010,05,15,13,11,16.90
2010,05,15,13,12,16.80
2010,05,15,13,13,16.70
2010,05,15,13,14,16.80
2010,05,15,13,15,16.80
2010,05,15,13,16,16.90
2010,05,15,13,17,16.90
2010,05,15,13,18,16.90
2010,05,15,13,19,17.00
2010,05,15,13,20,16.90
2010,05,15,13,21,16.90
2010,05,15,13,22,16.80
2010,05,15,13,23,16.80
2010,05,15,13,24,16.70
2010,05,15,13,25,16.70
2010,05,15,13,26,16.70
2010,05,15,13,27,16.70
2010,05,15,13,28,16.80
2010,05,15,13,29,16.90
2010,05,15,13,30,16.80
2010,05,15,13,31,16.80
2010,05,15,13,32,16.70
2010,05,15,13,33,16.70
2010,05,15,13,34,16.70
2010,05,15,13,35,16.70
2010,05,15,13,36,16.70
2010,05,15,13,37,16.60
2010,05,15,13,38,16.60
2010,05,15,13,39,16.50
2010,05,15,13,40,16.50
2010,05,15,13,41,16.40
2010,05,15,13,42,16.40
2010,05,15,13,43,16.40
2010,05,15,13,44,16.50
2010,05,15,13,45,16.60
2010,05,15,13,46,16.70
2010,05,15,13,47,16.60
2010,05,15,13,48,16.50
2010,05,15,13,49,16.50
2010,05,15,13,50,16.40
2010,05,15,13,51,16.40
2010,05,15,13,52,16.40
2010,05,15,13,53,16.40
2010,05,15,13,54,16.30
2010,05,15,13,55,16.30
2010,05,15,13,56,16.40
2010,05,15,13,57,16.40
2010,05,15,13,58,16.30
2010,05,15,13,59,16.30
2010,05,15,14,00,16.30
2010,05,15,14,01,16.30
2010,05,15,14,02,16.30
2010,05,15,14,03,16.40
2010,05,15,14,04,16.30
2010,05,15,14,05,16.30
2010,05,15,14,06,16.30
2010,05,15,14,07,16.40
2010,05,15,14,08,16.40
2010,05,15,14,09,16.50
2010,05,15,14,10,16.60
2010,05,15,14,11,16.70
2010,05,15,14,12,16.70
2010,05,15,14,13,16.80
2010,05,15,14,14,16.80
2010,05,15,14,15,16.90
2010,05,15,14,16,16.90
2010,05,15,14,17,17.00
2010,05,15,14,18,17.00
2010,05,15,14,19,16.90
2010,05,15,14,20,16.90
2010,05,15,14,21,16.90
2010,05,15,14,22,16.90
2010,05,15,14,23,16.90
2010,05,15,14,24,17.00
2010,05,15,14,25,17.00
2010,05,15,14,26,17.00
2010,05,15,14,27,17.10
2010,05,15,14,28,17.10
2010,05,15,14,29,17.10
2010,05,15,14,30,17.10
2010,05,15,14,31,17.10
2010,05,15,14,32,17.20
2010,05,15,14,33,17.20
2010,05,15,14,34,17.20
2010,05,15,14,35,17.30
2010,05,15,14,36,17.30
2010,05,15,14,37,17.20
2010,05,15,14,38,17.20
2010,05,15,14,39,17.20
2010,05,15,14,40,17.20
2010,05,15,14,41,17.20
2010,05,15,14,42,17.20
2010,05,15,14,43,17.30
2010,05,15,14,44,17.30
2010,05,15,14,45,17.30
2010,05,15,14,46,17.30
2010,05,15,14,47,17.40
2010,05,15,14,48,17.40
2010,05,15,14,49,17.30
2010,05,15,14,50,17.30
2010,05,15,14,51,17.30
2010,05,15,14,52,17.40
2010,05,15,14,53,17.40
2010,05,15,14,54,17.50
2010,05,15,14,55,17.50
2010,05,15,14,56,17.40
2010,05,15,14,57,17.40
2010,05,15,14,58,17.30
2010,05,15,14,59,17.20
2010,05,15,15,00,17.20
2010,05,15,15,01,17.30
2010,05,15,15,02,17.30
2010,05,15,15,03,17.30
2010,05,15,15,04,17.30
2010,05,15,15,05,17.30
2010,05,15,15,06,17.30
2010,05,15,15,07,17.30
2010,05,15,15,08,17.20
2010,05,15,15,09,17.10
2010,05,15,15,10,17.10
2010,05,15,15,11,17.10
2010,05,15,15,12,17.10
2010,05,15,15,13,17.10
2010,05,15,15,14,17.10
2010,05,15,15,15,17.00
2010,05,15,15,16,17.00
2010,05,15,15,17,17.00
2010,05,15,15,18,17.10
2010,05,15,15,19,17.10
2010,05,15,15,20,17.20
2010,05,15,15,21,17.20
2010,05,15,15,22,17.30
2010,05,15,15,23,17.30
2010,05,15,15,24,17.40
2010,05,15,15,25,17.40
2010,05,15,15,26,17.40
2010,05,15,15,27,17.50
2010,05,15,15,28,17.50
2010,05,15,15,29,17.60
2010,05,15,15,30,17.60
2010,05,15,15,31,17.60
2010,05,15,15,32,17.60
2010,05,15,15,33,17.70
2010,05,15,15,34,17.70
2010,05,15,15,35,17.70
2010,05,15,15,36,17.70
2010,05,15,15,37,17.70
2010,05,15,15,38,17.70
2010,05,15,15,39,17.70
2010,05,15,15,40,17.70
2010,05,15,15,41,17.70
2010,05,15,15,42,17.60
2010,05,15,15,43,17.60
2010,05,15,15,44,17.60
2010,05,15,15,45,17.50
2010,05,15,15,46,17.40
2010,05,15,15,47,17.30
2010,05,15,15,48,17.20
2010,05,15,15,49,17.10
2010,05,15,15,50,16.90
2010,05,15,15,51,16.70
2010,05,15,15,52,16.60
2010,05,15,15,53,16.50
2010,05,15,15,54,16.40
2010,05,15,15,55,16.30
2010,05,15,15,56,16.30
2010,05,15,15,57,16.30
2010,05,15,15,58,16.30
2010,05,15,15,59,16.30
2010,05,15,16,00,16.30
2010,05,15,16,01,16.30
2010,05,15,16,02,16.30
2010,05,15,16,03,16.40
2010,05,15,16,04,16.40
2010,05,15,16,05,16.50
2010,05,15,16,06,16.60
2010,05,15,16,07,16.60
2010,05,15,16,08,16.70
2010,05,15,16,09,16.70
2010,05,15,16,10,16.70
2010,05,15,16,11,16.70
2010,05,15,16,12,16.70
2010,05,15,16,13,16.70
2010,05,15,16,14,16.70
2010,05,15,16,15,16.80
2010,05,15,16,16,16.80
2010,05,15,16,17,16.80
2010,05,15,16,18,16.70
2010,05,15,16,19,16.70
2010,05,15,16,20,16.70
2010,05,15,16,21,16.70
2010,05,15,16,22,16.70
2010,05,15,16,23,16.70
2010,05,15,16,24,16.80
2010,05,15,16,25,16.80
2010,05,15,16,26,16.80
2010,05,15,16,27,16.90
2010,05,15,16,28,16.90
2010,05,15,16,29,16.90
2010,05,15,16,30,17.00
2010,05,15,16,31,17.00
2010,05,15,16,32,17.10
2010,05,15,16,33,17.10
2010,05,15,16,34,17.00
2010,05,15,16,35,16.90
2010,05,15,16,36,16.90
2010,05,15,16,37,16.90
2010,05,15,16,38,16.80
2010,05,15,16,39,16.80
2010,05,15,16,40,16.80
2010,05,15,16,41,16.80
2010,05,15,16,42,16.70
2010,05,15,16,43,16.80
2010,05,15,16,44,16.80
2010,05,15,16,45,16.80
2010,05,15,16,46,16.80
2010,05,15,16,47,16.90
2010,05,15,16,48,16.90
2010,05,15,16,49,16.90
2010,05,15,16,50,17.00
2010,05,15,16,51,17.00
2010,05,15,16,52,16.90
2010,05,15,16,53,16.90
2010,05,15,16,54,16.90
2010,05,15,16,55,16.80
2010,05,15,16,56,16.70
2010,05,15,16,57,16.70
2010,05,15,16,58,16.60
2010,05,15,16,59,16.60
2010,05,15,17,00,16.50
2010,05,15,17,01,16.50
2010,05,15,17,02,16.50
2010,05,15,17,03,16.50
2010,05,15,17,04,16.60
2010,05,15,17,05,16.60
2010,05,15,17,06,16.60
2010,05,15,17,07,16.60
2010,05,15,17,08,16.60
2010,05,15,17,09,16.60
2010,05,15,17,10,16.60
2010,05,15,17,11,16.60
2010,05,15,17,12,16.60
2010,05,15,17,13,16.60
2010,05,15,17,14,16.60
2010,05,15,17,15,16.60
2010,05,15,17,16,16.60
2010,05,15,17,17,16.60
2010,05,15,17,18,16.70
2010,05,15,17,19,16.70
2010,05,15,17,20,16.70
2010,05,15,17,21,16.80
2010,05,15,17,22,16.80
2010,05,15,17,23,16.80
2010,05,15,17,24,16.80
2010,05,15,17,25,16.90
2010,05,15,17,26,16.90
2010,05,15,17,27,16.90
2010,05,15,17,28,16.90
2010,05,15,17,29,16.90
2010,05,15,17,30,17.00
2010,05,15,17,31,17.00
2010,05,15,17,32,17.10
2010,05,15,17,33,17.10
2010,05,15,17,34,17.10
2010,05,15,17,35,17.20
2010,05,15,17,36,17.20
2010,05,15,17,37,17.20
2010,05,15,17,38,17.30
2010,05,15,17,39,17.30
2010,05,15,17,40,17.30
2010,05,15,17,41,17.20
2010,05,15,17,42,17.20
2010,05,15,17,43,17.20
2010,05,15,17,44,17.20
2010,05,15,17,45,17.20
2010,05,15,17,46,17.10
2010,05,15,17,47,17.10
2010,05,15,17,48,17.10
2010,05,15,17,49,17.10
2010,05,15,17,50,17.10
2010,05,15,17,51,17.10
2010,05,15,17,52,17.10
2010,05,15,17,53,17.10
2010,05,15,17,54,17.00
2010,05,15,17,55,17.00
2010,05,15,17,56,16.90
2010,05,15,17,57,16.90
2010,05,15,17,58,16.90
2010,05,15,17,59,16.90
2010,05,15,18,00,16.90
2010,05,15,18,01,16.90
2010,05,15,18,02,16.90
2010,05,15,18,03,17.00
2010,05,15,18,04,17.00
2010,05,15,18,05,17.00
2010,05,15,18,06,17.00
2010,05,15,18,07,17.10
2010,05,15,18,08,17.10
2010,05,15,18,09,17.10
2010,05,15,18,10,17.10
2010,05,15,18,11,17.10
2010,05,15,18,12,17.20
2010,05,15,18,13,17.20
2010,05,15,18,14,17.20
2010,05,15,18,15,17.20
2010,05,15,18,16,17.20
2010,05,15,18,17,17.20
2010,05,15,18,18,17.20
2010,05,15,18,19,17.20
2010,05,15,18,20,17.20
2010,05,15,18,21,17.20
2010,05,15,18,22,17.20
2010,05,15,18,23,17.20
2010,05,15,18,24,17.20
2010,05,15,18,25,17.20
2010,05,15,18,26,17.20
2010,05,15,18,27,17.20
2010,05,15,18,28,17.20
2010,05,15,18,29,17.20
2010,05,15,18,30,17.20
2010,05,15,18,31,17.20
2010,05,15,18,32,17.20
2010,05,15,18,33,17.20
2010,05,15,18,34,17.20
2010,05,15,18,35,17.20
2010,05,15,18,36,17.20
2010,05,15,18,37,17.20
2010,05,15,18,38,17.20
2010,05,15,18,39,17.20
2010,05,15,18,40,17.20
2010,05,15,18,41,17.20
2010,05,15,18,42,17.20
2010,05,15,18,43,17.20
2010,05,15,18,44,17.20
2010,05,15,18,45,17.20
2010,05,15,18,46,17.10
2010,05,15,18,47,17.10
2010,05,15,18,48,17.10
2010,05,15,18,49,17.10
2010,05,15,18,50,17.10
2010,05,15,18,51,17.10
2010,05,15,18,52,17.10
2010,05,15,18,53,17.10
2010,05,15,18,54,17.10
2010,05,15,18,55,17.10
2010,05,15,18,56,17.10
2010,05,15,18,57,17.10
2010,05,15,18,58,17.10
2010,05,15,18,59,17.10
2010,05,15,19,00,17.10
2010,05,15,19,01,17.10
2010,05,15,19,02,17.10
2010,05,15,19,03,17.10
2010,05,15,19,04,17.10
2010,05,15,19,05,17.20
2010,05,15,19,06,17.20
2010,05,15,19,07,17.20
2010,05,15,19,08,17.20
2010,05,15,19,09,17.20
2010,05,15,19,10,17.20
2010,05,15,19,11,17.20
2010,05,15,19,12,17.20
2010,05,15,19,13,17.20
2010,05,15,19,14,17.20
2010,05,15,19,15,17.20
2010,05,15,19,16,17.20
2010,05,15,19,17,17.20
